Voltar ao catálogo

STARLINK-32819

AtivoComunicaçõesVLEO
NORAD 62995·PAYLOAD·🇺🇸 United States

Lançado Feb 11, 2025 de Cape Canaveral Space Force Station

Loading…

Próximas Passagens (próximas 24 horas)

TLE

AtualizadoSource: CelesTrak SupGP

Época: Sep 14, 2026, 20:40 UTC

1 62995C 25031Q   26257.86159722 -.00040438  00000+0 -14648-2 0  2576
2 62995  43.0027 154.9393 0001086 268.0936 221.9090 15.27596194    15

Acompanhe STARLINK-32819 em tempo real com AllMySat

Download on the App Store